EW9411 Weather Reports


Display with metric or nautical units.
time (UTC)temp
F
wind
direction
speed
MPH
gust
MPH
rain 1hr
in
rain 24hr
in
rain mn
in
humidity
%
barometer
mb
20260504000337 57 340 1.0 8.0 0.00 0.00 0.00 39 1009.5
20260504000139 58 340 1.0 10.0 0.00 0.00 0.00 39 1009.5
20260503235905 58 341 2.0 10.0 0.00 0.00 0.00 38 1009.5
20260503235646 58 346 2.0 10.0 0.00 0.00 0.00 38 1009.5
20260503235334 58 356 0.0 8.0 0.00 0.00 0.00 37 1009.4
20260503235136 58 356 1.0 8.0 0.00 0.00 0.00 37 1009.4
20260503234842 58 356 1.0 8.0 0.00 0.00 0.00 38 1009.4
20260503234640 58 351 2.0 8.0 0.00 0.00 0.00 36 1009.4
20260503234351 58 275 1.0 5.0 0.00 0.00 0.00 36 1009.3
20260503234150 58 275 1.0 5.0 0.00 0.00 0.00 37 1009.3
20260503233840 58 275 3.0 5.0 0.00 0.00 0.00 37 1009.3
20260503233639 58 321 2.0 7.0 0.00 0.00 0.00 36 1009.3
20260503233350 59 351 1.0 8.0 0.00 0.00 0.00 36 1009.2
20260503233148 59 351 2.0 10.0 0.00 0.00 0.00 36 1009.1
20260503232838 59 260 4.0 10.0 0.00 0.00 0.00 35 1009.1
20260503232635 59 304 2.0 10.0 0.00 0.00 0.00 36 1009.1
20260503232346 59 268 3.0 10.0 0.00 0.00 0.00 36 1009.1
20260503232143 59 327 3.0 10.0 0.00 0.00 0.00 35 1009.1
20260503231833 59 295 2.0 10.0 0.00 0.00 0.00 36 1009.2
20260503231651 59 295 3.0 10.0 0.00 0.00 0.00 35 1009.1
20260503231338 59 356 3.0 10.0 0.00 0.00 0.00 37 1009.1
20260503231137 59 273 2.0 4.0 0.00 0.00 0.00 35 1009.0
20260503230847 59 317 0.0 7.0 0.00 0.00 0.00 35 1009.0
20260503230645 59 317 1.0 7.0 0.00 0.00 0.00 35 1009.0
20260503230336 59 325 3.0 7.0 0.00 0.00 0.00 35 1009.0
20260503230134 59 232 2.0 7.0 0.00 0.00 0.00 36 1009.0
20260503225845 59 238 1.0 6.0 0.00 0.00 0.00 35 1008.9
20260503225643 59 238 1.0 6.0 0.00 0.00 0.00 34 1008.9
20260503225334 59 267 1.0 8.0 0.00 0.00 0.00 35 1008.9
20260503225151 59 4 1.0 13.0 0.00 0.00 0.00 34 1008.8
20260503224843 59 5 2.0 13.0 0.00 0.00 0.00 34 1008.8
20260503224639 59 14 2.0 13.0 0.00 0.00 0.00 34 1008.8
20260503224407 60 292 5.0 12.0 0.00 0.00 0.00 33 1008.7
20260503224148 60 11 2.0 9.0 0.00 0.00 0.00 33 1008.8
20260503223835 60 346 1.0 10.0 0.00 0.00 0.00 35 1008.7
20260503223638 60 346 2.0 10.0 0.00 0.00 0.00 34 1008.8
20260503223344 60 258 5.0 10.0 0.00 0.00 0.00 34 1008.8
20260503223147 60 351 2.0 8.0 0.00 0.00 0.00 35 1008.8
20260503222832 60 315 2.0 9.0 0.00 0.00 0.00 34 1008.7
20260503222633 60 289 4.0 9.0 0.00 0.00 0.00 32 1008.8
20260503222339 60 360 2.0 18.0 0.00 0.00 0.00 33 1008.8
20260503222141 60 360 4.0 18.0 0.00 0.00 0.00 33 1008.8
20260503221848 60 346 3.0 18.0 0.00 0.00 0.00 33 1008.8
20260503221648 60 360 8.0 18.0 0.00 0.00 0.00 32 1008.8
20260503221334 60 356 4.0 13.0 0.00 0.00 0.00 33 1008.9
20260503221136 60 322 4.0 13.0 0.00 0.00 0.00 32 1008.9
20260503220845 60 324 6.0 14.0 0.00 0.00 0.00 33 1008.9
20260503220704 60 356 2.0 14.0 0.00 0.00 0.00 33 1008.9
20260503220334 60 356 3.0 14.0 0.00 0.00 0.00 34 1008.9
20260503220152 60 297 7.0 14.0 0.00 0.00 0.00 33 1008.9
20260503215842 60 252 4.0 11.0 0.00 0.00 0.00 32 1008.8
20260503215640 60 32 3.0 11.0 0.00 0.00 0.00 32 1008.8
20260503215352 60 254 4.0 14.0 0.00 0.00 0.00 32 1008.8
20260503215150 60 360 3.0 14.0 0.00 0.00 0.00 33 1008.8
20260503214840 60 4 5.0 14.0 0.00 0.00 0.00 32 1008.9
20260503214659 60 346 6.0 14.0 0.00 0.00 0.00 33 1008.9
20260503214348 60 346 4.0 14.0 0.00 0.00 0.00 32 1008.9
20260503214145 60 356 5.0 14.0 0.00 0.00 0.00 32 1009.0
20260503213856 60 12 5.0 12.0 0.00 0.00 0.00 32 1008.9
20260503213633 60 321 7.0 12.0 0.00 0.00 0.00 32 1008.9
20260503213359 60 324 5.0 12.0 0.00 0.00 0.00 33 1009.0
20260503213200 60 238 4.0 12.0 0.00 0.00 0.00 32 1008.9
20260503212847 60 48 3.0 9.0 0.00 0.00 0.00 32 1008.9
20260503212648 60 267 3.0 9.0 0.00 0.00 0.00 32 1008.8
20260503212335 61 316 2.0 12.0 0.00 0.00 0.00 34 1008.8
20260503212138 60 247 3.0 12.0 0.00 0.00 0.00 32 1008.8
20260503211844 60 351 4.0 12.0 0.00 0.00 0.00 31 1008.8
20260503211706 60 337 4.0 15.0 0.00 0.00 0.00 33 1008.8
20260503211349 60 28 4.0 17.0 0.00 0.00 0.00 31 1008.7
20260503211146 60 299 5.0 17.0 0.00 0.00 0.00 31 1008.8
20260503210856 60 225 7.0 17.0 0.00 0.00 0.00 31 1008.7
20260503210716 61 6 5.0 16.0 0.00 0.00 0.00 32 1009.0
20260503210406 61 317 5.0 11.0 0.00 0.00 0.00 31 1008.8
20260503210142 61 226 3.0 11.0 0.00 0.00 0.00 34 1008.8
20260503205834 61 360 3.0 11.0 0.00 0.00 0.00 31 1008.8
20260503205632 61 10 5.0 11.0 0.00 0.00 0.00 32 1008.8
20260503205345 61 20 2.0 12.0 0.00 0.00 0.00 32 1008.8
20260503205143 61 294 2.0 12.0 0.00 0.00 0.00 33 1008.8
20260503204853 61 286 3.0 12.0 0.00 0.00 0.00 33 1008.9
20260503204712 61 231 4.0 12.0 0.00 0.00 0.00 32 1008.9
20260503204400 61 13 5.0 13.0 0.00 0.00 0.00 32 1008.8
20260503204137 61 273 3.0 13.0 0.00 0.00 0.00 36 1008.9
20260503203903 60 16 6.0 14.0 0.00 0.00 0.00 34 1008.9
20260503203643 60 313 6.0 14.0 0.00 0.00 0.00 32 1008.9
20260503203350 60 340 5.0 14.0 0.00 0.00 0.00 33 1008.8
20260503203153 60 15 5.0 15.0 0.00 0.00 0.00 33 1008.9
20260503202840 60 25 4.0 15.0 0.00 0.00 0.00 33 1009.0
20260503202643 60 8 3.0 15.0 0.00 0.00 0.00 34 1009.0
20260503202350 59 351 3.0 15.0 0.00 0.00 0.00 36 1009.0
20260503202151 59 319 4.0 15.0 0.00 0.00 0.00 34 1008.8
20260503201838 59 6 5.0 17.0 0.00 0.00 0.00 33 1008.9
20260503201657 59 266 6.0 17.0 0.00 0.00 0.00 31 1008.9
20260503201406 60 267 6.0 17.0 0.00 0.00 0.00 33 1008.9
20260503201142 60 181 9.0 17.0 0.00 0.00 0.00 34 1009.1
20260503200853 60 243 7.0 16.0 0.00 0.00 0.00 34 1009.0
20260503200651 60 297 5.0 14.0 0.00 0.00 0.00 33 1009.0
20260503200401 60 5 7.0 13.0 0.00 0.00 0.00 34 1008.9
20260503200139 59 8 6.0 12.0 0.00 0.00 0.00 32 1009.1
20260503195850 59 356 5.0 12.0 0.00 0.00 0.00 34 1009.1
20260503195649 59 8 5.0 13.0 0.00 0.00 0.00 33 1009.2
20260503195339 59 351 3.0 17.0 0.00 0.00 0.00 35 1009.1
20260503195136 59 225 5.0 17.0 0.00 0.00 0.00 34 1009.1
20260503194847 59 248 8.0 17.0 0.00 0.00 0.00 33 1009.2
20260503194645 59 296 7.0 18.0 0.00 0.00 0.00 34 1009.2
20260503194338 59 45 3.0 18.0 0.00 0.00 0.00 37 1009.2
20260503194137 58 316 6.0 18.0 0.00 0.00 0.00 34 1009.1
20260503193842 58 272 6.0 17.0 0.00 0.00 0.00 35 1009.1
20260503193645 58 272 5.0 17.0 0.00 0.00 0.00 35 1009.2
20260503193333 58 242 6.0 16.0 0.00 0.00 0.00 36 1009.5
20260503193134 58 346 8.0 18.0 0.00 0.00 0.00 36 1009.3
20260503192840 58 23 7.0 18.0 0.00 0.00 0.00 34 1009.6
20260503192643 58 7 6.0 18.0 0.00 0.00 0.00 36 1009.4
20260503192349 59 13 4.0 17.0 0.00 0.00 0.00 36 1009.6
20260503192150 59 285 5.0 17.0 0.00 0.00 0.00 35 1009.5
20260503191837 59 232 6.0 14.0 0.00 0.00 0.00 37 1009.6
20260503191639 59 346 6.0 17.0 0.00 0.00 0.00 37 1009.7
20260503191344 59 273 6.0 17.0 0.00 0.00 0.00 35 1009.5
20260503191145 59 351 5.0 17.0 0.00 0.00 0.00 35 1009.6
20260503190832 58 336 5.0 15.0 0.00 0.00 0.00 38 1009.6
20260503190634 58 237 6.0 17.0 0.00 0.00 0.00 35 1009.7
20260503190342 58 331 7.0 17.0 0.00 0.00 0.00 38 1009.6
20260503190143 58 241 5.0 17.0 0.00 0.00 0.00 39 1009.6
20260503185850 58 337 6.0 17.0 0.00 0.00 0.00 35 1009.6
20260503185647 58 268 7.0 16.0 0.00 0.00 0.00 35 1009.6
20260503185357 58 237 5.0 16.0 0.00 0.00 0.00 38 1009.7
20260503185133 58 292 4.0 20.0 0.00 0.00 0.00 39 1009.7
20260503184844 58 346 5.0 22.0 0.00 0.00 0.00 36 1009.7
20260503184642 58 290 4.0 22.0 0.00 0.00 0.00 37 1009.6
20260503184354 58 263 6.0 22.0 0.00 0.00 0.00 40 1009.8
20260503184151 57 293 9.0 22.0 0.00 0.00 0.00 35 1009.9
20260503183903 58 319 4.0 19.0 0.00 0.00 0.00 38 1009.7
20260503183639 58 185 5.0 19.0 0.00 0.00 0.00 38 1009.8
20260503183350 57 351 5.0 19.0 0.00 0.00 0.00 38 1009.8
20260503183149 57 27 5.0 19.0 0.00 0.00 0.00 40 1009.8
20260503182839 57 7 4.0 19.0 0.00 0.00 0.00 41 1009.8
20260503182658 57 250 7.0 19.0 0.00 0.00 0.00 40 1009.8
20260503182404 57 260 3.0 19.0 0.00 0.00 0.00 39 1009.9
20260503182145 56 336 7.0 19.0 0.00 0.00 0.00 36 1009.8
20260503181911 58 31 3.0 12.0 0.00 0.00 0.00 38 1009.8
20260503181633 58 25 5.0 12.0 0.00 0.00 0.00 38 1009.8
20260503181338 57 35 5.0 14.0 0.00 0.00 0.00 38 1009.8
20260503181141 57 9 5.0 14.0 0.00 0.00 0.00 42 1009.8
20260503180847 57 262 5.0 14.0 0.00 0.00 0.00 39 1009.9
20260503180706 56 9 6.0 14.0 0.00 0.00 0.00 40 1010.0
20260503180355 56 301 4.0 13.0 0.00 0.00 0.00 41 1009.9
20260503175849 57 260 2.0 17.0 0.00 0.00 0.00 40 1009.9
20260503175647 57 191 3.0 17.0 0.00 0.00 0.00 40 1010.0
20260503175336 57 273 7.0 17.0 0.00 0.00 0.00 40 1010.1
20260503175132 56 295 4.0 15.0 0.00 0.00 0.00 41 1010.1
20260503174842 56 13 7.0 18.0 0.00 0.00 0.00 40 1010.2
20260503174700 56 311 2.0 18.0 0.00 0.00 0.00 42 1010.2
20260503174405 56 333 7.0 18.0 0.00 0.00 0.00 41 1010.2
20260503174145 56 17 5.0 11.0 0.00 0.00 0.00 40 1010.3
20260503173832 56 316 4.0 16.0 0.00 0.00 0.00 42 1010.2
20260503173634 55 6 3.0 16.0 0.00 0.00 0.00 45 1010.2
20260503173342 55 256 4.0 16.0 0.00 0.00 0.00 48 1010.2
20260503173143 54 14 6.0 16.0 0.00 0.00 0.00 42 1010.1
20260503172910 54 13 6.0 16.0 0.00 0.00 0.00 45 1010.2
20260503172650 54 14 5.0 14.0 0.00 0.00 0.00 43 1010.3
20260503172336 54 346 5.0 13.0 0.00 0.00 0.00 46 1010.2
20260503172139 54 22 6.0 13.0 0.00 0.00 0.00 44 1010.3
20260503171846 53 261 5.0 13.0 0.00 0.00 0.00 44 1010.3
20260503171649 53 346 2.0 12.0 0.00 0.00 0.00 46 1010.3
20260503171334 53 292 4.0 15.0 0.00 0.00 0.00 45 1010.5
20260503171136 53 225 3.0 15.0 0.00 0.00 0.00 44 1010.5
20260503170843 54 1 7.0 15.0 0.00 0.00 0.00 43 1010.5
20260503170701 54 33 9.0 15.0 0.00 0.00 0.00 42 1010.5
20260503170351 54 5 3.0 12.0 0.00 0.00 0.00 45 1010.5
20260503170148 54 346 3.0 12.0 0.00 0.00 0.00 44 1010.5
20260503160144 53 295 3.0 14.0 0.00 0.00 0.00 45 1010.8
20260503150851 51 95 3.0 11.0 0.00 0.00 0.00 45 1010.8
20260503150648 51 279 5.0 11.0 0.00 0.00 0.00 46 1010.9
20260503150357 51 360 3.0 12.0 0.00 0.00 0.00 45 1010.8
20260503150134 51 334 1.0 12.0 0.00 0.00 0.00 45 1010.9
20260503140145 51 332 2.0 15.0 0.00 0.00 0.00 51 1010.7
20260503131349 48 337 4.0 15.0 0.00 0.00 0.00 57 1010.9
20260503131147 48 360 9.0 15.0 0.00 0.00 0.00 55 1010.9
20260503130838 48 356 6.0 15.0 0.00 0.00 0.00 56 1010.9
20260503130636 48 360 6.0 15.0 0.00 0.00 0.00 55 1010.8
20260503130347 48 4 2.0 13.0 0.00 0.00 0.00 56 1010.9
20260503130146 48 360 6.0 13.0 0.00 0.00 0.00 57 1010.9
20260503120150 46 335 3.0 20.0 0.00 0.00 0.00 62 1010.7
20260503110636 43 356 3.0 11.0 0.00 0.00 0.00 64 1010.4
20260503110345 43 356 7.0 11.0 0.00 0.00 0.00 63 1010.4
20260503110147 43 25 6.0 13.0 0.00 0.00 0.00 64 1010.3
20260503100212 43 356 2.0 9.0 0.00 0.00 0.00 63 1009.8
20260503090409 44 4 3.0 10.0 0.00 0.00 0.00 61 1009.4
20260503090212 44 2 5.0 13.0 0.00 0.00 0.00 60 1009.4
20260503081351 45 7 5.0 9.0 0.00 0.00 0.00 59 1009.4
20260503081148 45 346 3.0 6.0 0.00 0.00 0.00 60 1009.4
20260503080836 45 360 3.0 6.0 0.00 0.00 0.00 59 1009.4
20260503080634 45 9 3.0 6.0 0.00 0.00 0.00 59 1009.4
20260503080344 45 2 2.0 7.0 0.00 0.00 0.00 60 1009.4
20260503080142 46 27 2.0 10.0 0.00 0.00 0.00 59 1009.4
20260503072844 46 356 4.0 10.0 0.00 0.00 0.00 57 1009.2
20260503072642 46 17 3.0 10.0 0.00 0.00 0.00 57 1009.2
20260503072333 46 13 3.0 13.0 0.00 0.00 0.00 57 1009.2
20260503072151 46 25 5.0 13.0 0.00 0.00 0.00 57 1009.1
20260503071903 46 360 6.0 13.0 0.00 0.00 0.00 57 1009.2
20260503071701 46 356 7.0 13.0 0.00 0.00 0.00 57 1009.3
20260503071348 46 8 5.0 12.0 0.00 0.00 0.00 57 1009.2
20260503071147 46 37 7.0 12.0 0.00 0.00 0.00 57 1009.2
20260503070838 46 23 3.0 10.0 0.00 0.00 0.00 57 1009.3
20260503070637 46 13 4.0 11.0 0.00 0.00 0.00 57 1009.3
20260503070347 46 351 7.0 11.0 0.00 0.00 0.00 57 1009.3
20260503070205 46 356 5.0 11.0 0.00 0.00 0.00 57 1009.3
20260503060343 48 360 3.0 9.0 0.00 0.00 0.00 54 1009.5
20260503060141 48 356 4.0 9.0 0.00 0.00 0.00 54 1009.6
20260503054845 48 13 3.0 11.0 0.00 0.00 0.00 53 1009.6
20260503054647 48 17 4.0 11.0 0.00 0.00 0.00 53 1009.7
20260503054333 48 356 5.0 11.0 0.00 0.00 0.00 53 1009.6
20260503054134 48 351 4.0 11.0 0.00 0.00 0.00 53 1009.7
20260503053840 48 356 4.0 9.0 0.00 0.00 0.00 53 1009.6
20260503053644 48 351 5.0 9.0 0.00 0.00 0.00 53 1009.7
20260503053350 48 12 3.0 9.0 0.00 0.00 0.00 53 1009.7
20260503053152 48 2 4.0 9.0 0.00 0.00 0.00 52 1009.7
20260503052839 48 12 5.0 8.0 0.00 0.00 0.00 52 1009.8
20260503052641 49 4 3.0 6.0 0.00 0.00 0.00 53 1009.9
20260503052347 49 8 2.0 10.0 0.00 0.00 0.00 53 1009.9
20260503052209 49 8 4.0 10.0 0.00 0.00 0.00 52 1009.9
20260503051834 49 12 3.0 10.0 0.00 0.00 0.00 52 1010.0
20260503051635 49 46 4.0 10.0 0.00 0.00 0.00 52 1010.0
20260503051340 49 351 4.0 9.0 0.00 0.00 0.00 52 1010.0
20260503051139 49 8 4.0 9.0 0.00 0.00 0.00 51 1010.0
20260503050848 49 28 5.0 12.0 0.00 0.00 0.00 51 1010.0
20260503050706 49 8 5.0 12.0 0.00 0.00 0.00 51 1009.9
20260503050338 49 12 4.0 12.0 0.00 0.00 0.00 51 1009.9
20260503050136 49 29 5.0 12.0 0.00 0.00 0.00 50 1009.9
20260503045849 49 10 5.0 9.0 0.00 0.00 0.00 51 1009.9
20260503045646 49 2 2.0 8.0 0.00 0.00 0.00 51 1009.9
20260503045359 49 356 4.0 9.0 0.00 0.00 0.00 51 1010.0
20260503045135 49 360 4.0 9.0 0.00 0.00 0.00 50 1010.0
20260503044847 49 16 3.0 12.0 0.00 0.00 0.00 51 1010.1
20260503044644 49 356 4.0 12.0 0.00 0.00 0.00 50 1010.1
20260503044335 49 3 5.0 12.0 0.00 0.00 0.00 50 1010.1
20260503044134 49 29 4.0 10.0 0.00 0.00 0.00 50 1010.1
20260503043845 49 346 5.0 10.0 0.00 0.00 0.00 49 1010.2
20260503043643 49 351 6.0 11.0 0.00 0.00 0.00 49 1010.2
20260503043409 50 13 4.0 11.0 0.00 0.00 0.00 50 1010.2
20260503043150 50 346 4.0 11.0 0.00 0.00 0.00 50 1010.2
20260503042836 50 16 5.0 11.0 0.00 0.00 0.00 50 1010.2
20260503042641 50 5 3.0 9.0 0.00 0.00 0.00 51 1010.2
20260503042347 50 20 4.0 12.0 0.00 0.00 0.00 50 1010.1
20260503042150 50 29 5.0 12.0 0.00 0.00 0.00 50 1010.2
20260503041835 50 22 4.0 12.0 0.00 0.00 0.00 49 1010.3
20260503041636 50 23 7.0 12.0 0.00 0.00 0.00 49 1010.3
20260503041342 50 2 5.0 10.0 0.00 0.00 0.00 49 1010.2
20260503041206 50 21 6.0 15.0 0.00 0.00 0.00 49 1010.1
20260503040850 50 7 5.0 15.0 0.00 0.00 0.00 49 1010.1
20260503040633 50 356 5.0 15.0 0.00 0.00 0.00 49 1010.1
20260503040340 50 356 4.0 8.0 0.00 0.00 0.00 49 1010.1
20260503040143 50 15 4.0 9.0 0.00 0.00 0.00 50 1010.1
20260503035842 50 11 3.0 11.0 0.00 0.00 0.00 49 1010.2
20260503035640 50 2 3.0 11.0 0.00 0.00 0.00 49 1010.1
20260503035351 50 4 6.0 11.0 0.00 0.00 0.00 48 1010.1
20260503035148 50 15 4.0 11.0 0.00 0.00 0.00 48 1010.1
20260503034837 50 15 5.0 12.0 0.00 0.00 0.00 48 1010.1
20260503034635 50 346 5.0 12.0 0.00 0.00 0.00 48 1010.1
20260503034346 50 346 5.0 12.0 0.00 0.00 0.00 48 1010.0
20260503034144 51 6 3.0 14.0 0.00 0.00 0.00 48 1010.0
20260503033835 51 351 4.0 14.0 0.00 0.00 0.00 48 1010.1
20260503033632 51 8 5.0 14.0 0.00 0.00 0.00 47 1010.1
20260503033344 51 335 7.0 14.0 0.00 0.00 0.00 48 1010.0
20260503033141 51 19 4.0 10.0 0.00 0.00 0.00 48 1010.0
20260503032852 51 24 4.0 10.0 0.00 0.00 0.00 48 1010.0
20260503032651 51 346 5.0 10.0 0.00 0.00 0.00 47 1009.9
20260503032341 51 3 4.0 11.0 0.00 0.00 0.00 47 1010.0
20260503032140 51 20 4.0 11.0 0.00 0.00 0.00 47 1010.0
20260503031851 51 7 5.0 11.0 0.00 0.00 0.00 47 1010.0
20260503031649 51 335 2.0 10.0 0.00 0.00 0.00 48 1010.0
20260503031338 51 1 1.0 11.0 0.00 0.00 0.00 48 1010.0
20260503031156 51 356 4.0 11.0 0.00 0.00 0.00 47 1010.1
20260503030847 51 8 4.0 11.0 0.00 0.00 0.00 47 1010.1
20260503030644 51 12 6.0 11.0 0.00 0.00 0.00 47 1010.1
20260503030334 51 360 3.0 10.0 0.00 0.00 0.00 47 1010.1
20260503030133 51 15 3.0 10.0 0.00 0.00 0.00 48 1010.1
20260503025840 51 31 4.0 10.0 0.00 0.00 0.00 47 1010.1
20260503025643 51 6 2.0 6.0 0.00 0.00 0.00 47 1010.2
20260503025350 51 8 3.0 6.0 0.00 0.00 0.00 48 1010.1
20260503025152 51 356 4.0 6.0 0.00 0.00 0.00 47 1010.2
20260503024840 51 5 3.0 6.0 0.00 0.00 0.00 48 1010.0
20260503024643 51 7 4.0 6.0 0.00 0.00 0.00 47 1010.0
20260503024349 51 4 2.0 4.0 0.00 0.00 0.00 48 1010.0
20260503024151 51 4 2.0 4.0 0.00 0.00 0.00 47 1010.0
20260503023838 52 3 3.0 5.0 0.00 0.00 0.00 47 1010.0
20260503023641 52 360 3.0 5.0 0.00 0.00 0.00 47 1010.0
20260503023347 52 360 2.0 5.0 0.00 0.00 0.00 47 1010.0
20260503023149 52 360 3.0 5.0 0.00 0.00 0.00 47 1010.0
20260503022836 52 6 2.0 6.0 0.00 0.00 0.00 47 1010.0
20260503022636 52 6 3.0 6.0 0.00 0.00 0.00 47 1010.0
20260503022404 52 4 4.0 6.0 0.00 0.00 0.00 46 1010.0
20260503022202 52 6 2.0 8.0 0.00 0.00 0.00 46 1010.0
20260503021833 52 2 3.0 8.0 0.00 0.00 0.00 46 1010.0
20260503021651 52 356 1.0 8.0 0.00 0.00 0.00 46 1010.1
20260503021338 52 360 3.0 8.0 0.00 0.00 0.00 45 1010.1
20260503021136 52 341 2.0 8.0 0.00 0.00 0.00 46 1010.1
20260503020848 52 356 4.0 8.0 0.00 0.00 0.00 46 1010.1
20260503020706 52 6 5.0 8.0 0.00 0.00 0.00 46 1010.1
20260503020335 52 10 4.0 8.0 0.00 0.00 0.00 46 1010.2
20260503020134 52 4 3.0 5.0 0.00 0.00 0.00 46 1010.2
20260503015844 52 335 1.0 5.0 0.00 0.00 0.00 47 1010.3
20260503015703 52 335 2.0 5.0 0.00 0.00 0.00 47 1010.3
20260503015333 52 356 1.0 5.0 0.00 0.00 0.00 48 1010.3
20260503015150 52 356 0.0 5.0 0.00 0.00 0.00 49 1010.4
20260503014842 52 356 1.0 5.0 0.00 0.00 0.00 47 1010.3
20260503014641 52 356 0.0 2.0 0.00 0.00 0.00 47 1010.3
20260503014348 52 356 1.0 4.0 0.00 0.00 0.00 46 1010.2
20260503014149 52 356 1.0 4.0 0.00 0.00 0.00 46 1010.2
20260503013836 53 356 1.0 4.0 0.00 0.00 0.00 46 1010.2
20260503013638 53 356 2.0 5.0 0.00 0.00 0.00 45 1010.3
20260503013346 53 356 1.0 5.0 0.00 0.00 0.00 46 1010.3
20260503013208 53 356 2.0 5.0 0.00 0.00 0.00 46 1010.2
20260503012835 53 351 2.0 5.0 0.00 0.00 0.00 46 1010.2
20260503012638 53 351 2.0 5.0 0.00 0.00 0.00 45 1010.2
20260503012345 53 351 1.0 5.0 0.00 0.00 0.00 46 1010.2
20260503012147 53 351 1.0 5.0 0.00 0.00 0.00 46 1010.2
20260503011834 53 351 1.0 5.0 0.00 0.00 0.00 45 1010.2
20260503011636 53 351 1.0 4.0 0.00 0.00 0.00 46 1010.2
20260503011340 53 351 1.0 3.0 0.00 0.00 0.00 45 1010.2
20260503011140 53 351 0.0 3.0 0.00 0.00 0.00 45 1010.2
20260503010847 53 351 1.0 3.0 0.00 0.00 0.00 45 1010.2
20260503010644 53 351 2.0 3.0 0.00 0.00 0.00 45 1010.1
20260503010335 53 351 1.0 3.0 0.00 0.00 0.00 45 1010.0
20260503010133 53 351 1.0 4.0 0.00 0.00 0.00 45 1010.0
20260503005844 53 351 1.0 4.0 0.00 0.00 0.00 45 1010.0
20260503005642 53 351 2.0 5.0 0.00 0.00 0.00 44 1009.9
20260503005334 53 346 2.0 5.0 0.00 0.00 0.00 44 1009.8
20260503005150 53 346 2.0 5.0 0.00 0.00 0.00 44 1009.8
20260503004840 53 346 2.0 5.0 0.00 0.00 0.00 44 1009.8
20260503004639 53 346 2.0 6.0 0.00 0.00 0.00 44 1009.7
20260503004348 53 342 3.0 6.0 0.00 0.00 0.00 44 1009.6
20260503004146 53 1 3.0 6.0 0.00 0.00 0.00 44 1009.6
20260503003836 53 5 2.0 5.0 0.00 0.00 0.00 44 1009.6
20260503003633 53 356 2.0 5.0 0.00 0.00 0.00 44 1009.7
20260503003344 53 15 2.0 5.0 0.00 0.00 0.00 45 1009.6
20260503003142 53 15 2.0 5.0 0.00 0.00 0.00 44 1009.7
20260503002833 54 6 2.0 4.0 0.00 0.00 0.00 44 1009.7
20260503002651 54 6 2.0 4.0 0.00 0.00 0.00 44 1009.7
20260503002403 54 6 1.0 5.0 0.00 0.00 0.00 44 1009.7
20260503002140 54 6 1.0 5.0 0.00 0.00 0.00 44 1009.7
20260503001907 54 6 1.0 6.0 0.00 0.00 0.00 44 1009.6
20260503001649 54 4 3.0 6.0 0.00 0.00 0.00 44 1009.6
20260503001333 54 7 2.0 9.0 0.00 0.00 0.00 44 1009.6
20260503001136 54 7 3.0 9.0 0.00 0.00 0.00 44 1009.5
20260503000842 54 356 3.0 9.0 0.00 0.00 0.00 43 1009.5
20260503000645 54 4 3.0 9.0 0.00 0.00 0.00 43 1009.5